Tracking 22440 objects as of 26-Feb-2021
HD Live streaming from Space Station
objects crossing your sky now

COSMOS 2499

Track COSMOS 2499 now!
10-day predictions
COSMOS 2499 is classified as:


NORAD ID: 39765
Int'l Code: 2014-028E
Perigee: 1,159.3 km
Apogee: 1,514.4 km
Inclination: 82.4 °
Period: 112.2 minutes
Semi major axis: 7707 km
RCS: Unknown
Launch date: May 23, 2014
Source: Commonwealth of Independent States (former USSR) (CIS)
Launch site: PLESETSK MISSILE AND SPACE COMPLEX (PKMTR)
aabbcc
Your satellite tracking list
Your tracking list is empty




NASA's NSSDC Master Catalog

Two Line Element Set (TLE):
1 39765U 14028E   21056.92164557  .00000049  00000-0  14623-3 0  9990
2 39765  82.4427 120.0936 0230298 229.4644 128.6201 12.82929036316759
Source of the keplerian elements: Caltech